Portada
METAR-TAF:

METAR-TAF

Aeropuertos :

Valledupar, Colombia

Aeropuerto Alfonso López Pumarejo

latitud: 10-26N, longitud: 073-15W, altitud: 138 m

Observación

El informe se hizo hace 27 minutos, a las 22:00 UTC
Viento 8 kt del este-noreste
Temperatura 33°C
Humedad 41%
Presión 1007 hPa
Visibilidad 10 km o más
Escasas nubes a una altura de 2000 ft
Nubes dispersas a una altura de 20000 ft

METAR: SKVP 212200Z 06008KT 9999 FEW020 SCT200 33/18 A2975

Hora: 17:27 (22:27 UTC)


TAF: falta

Observaciones y pronósticos meteorológicos de más de 4000 aeropuertos (mensajes METAR y TAF).

Los puntos amarillos y rojos representan las estaciones disponibles.

Ponga el ratón en el punto deseado para ver el nombre de la estación.

Haga clic para ver las observaciones y los pronósticos meteorológicos.

Para cambiar el mapa : haga clic en los botones verdes con una cruz de color negro para hacer un zoom, en el botón verde con un guión para alejar o en las flechas verdes para mapas adyacentes.


METAR-TAF: